{"data":{"norad_id":63484,"epoch":"2026-09-20T23:22:05.109600Z","epoch_age_seconds":114806,"freshness":"FRESH","line1":"1 63484U 25070AA  26263.97367025  .00010519  00000+0  39121-3 0  9991","line2":"2 63484  43.0018 236.8243 0000319 277.7004  82.3811 15.27582673 82842","mean_motion":15.27582673,"eccentricity":3.19e-5,"inclination_deg":43.0018,"raan_deg":236.8243,"arg_perigee_deg":277.7004,"mean_anomaly_deg":82.3811,"bstar":0.00039121,"rev_number":8284,"period_min":94.266583763483,"perigee_km":482.82222054658,"apogee_km":483.25996370886,"semimajor_km":6861.1780921277,"source":"CELESTRAK","updated_at":"2026-09-21T09:00:35.012149Z"}}